Hourly Weather Roundup
Issued by NWS Central Illinois

Home | Current Version | Previous Version | Text Only | Print | Product List | Glossary On
Versions: 1 2 3 4 5 6 7 8 9 10 11 12 13 14 15 16 17 18 19 20 21 22 23 24 25 26 27 28 29 30 31 32 33 34 35 36 37 38 39 40 41 42 43 44 45 46 47 48 49 50
825
NZUS43 KILX 031710
HWRILX

AREA WEATHER ROUNDUP
NATIONAL WEATHER SERVICE, LINCOLN IL
1100 AM CST SAT DEC 03 2016


CITY           SKY/WX    TMP DP  RH WIND       PRES   REMARKS
BLOOMINGTON    CLOUDY    35  26  69 NW8       30.36F WCI  29
CHAMPAIGN      CLOUDY    37  26  64 NW7       30.38F WCI  32
DANVILLE       CLOUDY    34  27  74 NW8       30.34F WCI  27
DECATUR        CLOUDY    38  29  70 CALM      30.38F
EFFINGHAM      PTSUNNY   41  33  73 E5        30.40R
FLORA          CLOUDY    43  35  74 SE3       30.39S
GALESBURG      CLOUDY    35  26  70 E3        30.39R
JACKSONVILLE   CLOUDY    38  31  77 E6        30.38S WCI  33
LACON          CLOUDY    33  26  73 CALM      30.39R
LAWRENCEVILLE  CLOUDY    42  29  59 CALM      30.39S
LITCHFIELD     CLOUDY    39  33  78 SE5       30.36F
$$


CITY           SKY/WX    TMP DP  RH WIND       PRES   REMARKS
LINCOLN        CLOUDY    37  29  73 N3        30.39F
MACOMB         CLOUDY    36  29  75 E3        30.41F
MATTOON        CLOUDY    39  28  64 CALM      30.37F
MT CARMEL AP   CLOUDY    42  32  68 NE5       30.39R
OLNEY-NOBLE AP PTSUNNY   41  36  81 CALM      30.39R
PARIS          MOSUNNY   37  29  74 CALM      30.39R
PEORIA         CLOUDY    36  27  69 NE3       30.39S
PONTIAC        CLOUDY    34  30  84 W5        30.40R WCI  30
RANTOUL        CLOUDY    37  29  74 NW7       30.37F WCI  31
SPRINGFIELD    MOSUNNY   40  29  64 E5        30.39F
TAYLORVILLE    CLOUDY    38  31  74 E3        30.39R
$$

...REGIONAL REPORTS...


CITY           SKY/WX    TMP DP  RH WIND       PRES   REMARKS
CHICAGO O`HARE CLOUDY    32  22  66 W6        30.33S WCI  26
KANKAKEE       CLOUDY    34  26  71 W6        30.37R WCI  29
MOLINE         CLOUDY    37  24  59 W6        30.36F WCI  32
MOUNT STERLING CLOUDY    37  31  78 E5        30.37S WCI  33
MOUNT VERNON   NOT AVBL
PITTSFIELD     MOSUNNY   39  34  82 E6        30.38S WCI  34
QUINCY         CLOUDY    40  32  73 E8        30.36F WCI  34
ROCKFORD       CLOUDY    32  24  72 NW8       30.36S WCI  25
$$


CITY           SKY/WX    TMP DP  RH WIND       PRES   REMARKS
BURLINGTON     CLOUDY    36  28  73 E3        30.38R
CEDAR RAPIDS   CLOUDY    36  30  79 S9        30.33R WCI  29
DES MOINES     PTSUNNY   41  29  62 SE6       30.32S
KIRKSVILLE     CLOUDY    39  34  82 E7        30.35F WCI  34
OTTUMWA        CLOUDY    38  29  70 SE7       30.35S WCI  33
ST LOUIS       CLOUDY    43  31  62 SE8       30.37S
$$


CITY           SKY/WX    TMP DP  RH WIND       PRES   REMARKS
TERRE HAUTE    CLOUDY    39  27  62 N6        30.38F WCI  35
EVANSVILLE     CLOUDY    44  30  57 CALM      30.39S
INDIANAPOLIS   CLOUDY    38  27  64 NW7       30.35F WCI  33
LAFAYETTE      CLOUDY    35  27  72 CALM      30.35R
MADISON        CLOUDY    30  22  72 NW7       30.30F WCI  23
MILWAUKEE      CLOUDY    33  23  66 W7        30.30F WCI  27
$$






USA.gov is the U.S. government's official web portal to all federal, state and local government web resources and services.